Wetbulb
45.50 40.05 36.96 41.00 41.89 40.88 38.96 37.11 35.97 38.42 42.87 40.05 39.04 39.10 41.59 43.83 42.98 41.81 41.70 42.02 42.12 44.38 48.14 48.92 48.97 49.24 48.60 47.65 47.48 48.90 48.46 48.35 48.85 47.00 46.52 45.83 45.40 45.66 46.46 47.01 48.24 48.27 47.70 47.72
40.37 37.96 42.67 45.03 44.23 42.11 39.95 37.30 36.89 40.03 42.77 39.25 38.10 38.69 41.12 42.98 43.00 44.17 43.55 42.71 43.40 42.60 44.12 46.21 47.78 47.69 48.17 47.78 46.86 47.00 49.62 48.27 48.93 48.05 46.54 46.61 45.43 45.52 46.18 47.18 47.73 48.03 47.73 47.63
37.60 41.80 46.61 45.09 41.92 41.28 38.96 36.83 36.35 36.71 40.48 40.43 37.50 37.24 39.20 41.97 43.05 44.12 44.67 45.10 45.01 44.23 44.77 45.57 46.35 47.57 46.95 46.84 46.77 47.38 47.82 48.56 48.23 47.53 46.55 45.53 45.08 45.25 45.34 45.93 46.12 47.08 47.67 47.66
39.82 43.96 44.06 41.80 41.25 41.35 36.39 41.10 41.19 40.52 36.50 32.73 37.85 31.95 36.08 39.35 41.20 42.70 42.94 42.98 44.68 44.39 45.02 47.29 48.17 46.23 47.30 48.04 47.32 48.09 48.06 48.05 48.05 47.43 46.50 45.44 44.63 44.05 44.61 45.39 46.64 47.67 48.27 47.71
39.10 41.20 40.39 40.37 41.35 42.70 39.88 42.50 40.16 39.57 35.02 34.42 35.81 33.12 36.20 38.45 39.15 41.50 41.61 42.34 43.40 44.03 45.29 46.58 48.28 49.37 49.47 48.08 47.68 48.44 48.40 48.25 48.40 47.37 47.35 45.96 44.53 44.85 45.51 46.68 47.12 47.33 47.93 48.29
40.72 43.91 42.87 42.32 42.97 42.48 43.40 39.64 39.01 37.71 35.54 30.82 35.36 34.98 34.39 37.77 40.87 39.79 40.63 42.46 43.77 44.35 44.64 46.75 48.60 49.40 49.09 48.63 47.87 47.62 48.55 48.56 48.20 47.74 46.75 46.17 45.35 45.16 45.55 46.10 46.59 47.47 48.48 48.91
38.31 40.03 41.59 43.76 39.51 41.08 39.39 34.34 29.85 31.71 30.43 29.70 37.10 34.75 37.48 41.38 43.47 44.21 44.35 43.31 44.19 44.07 44.71 45.34 46.64 47.00 47.98 48.05 48.08 48.72 48.75 48.61 48.44 47.59 47.13 46.70 46.26 45.61 46.21 46.37 46.91 47.61 48.52 48.32
33.60 33.11 39.78 41.95 39.73 37.98 36.44 35.28 31.04 28.82 30.56 33.41 38.22 33.68 39.92 44.08 45.62 45.46 45.63 45.03 44.34 43.90 44.61 45.63 46.33 48.34 48.86 49.44 49.15 49.37 48.76 48.43 48.74 48.43 47.79 47.70 47.33 47.69 48.34 48.73 49.17 49.46 49.48 49.37
33.85 34.85 40.04 41.33 40.42 40.46 36.89 34.07 37.95 34.73 33.15 31.48 34.80 39.09 43.91 43.29 41.04 42.42 43.32 44.03 44.06 44.31 44.84 46.35 46.86 47.61 48.21 49.29 50.24 50.27 49.24 48.97 49.20 49.35 48.71 48.11 48.24 48.34 49.13 48.96 49.30 49.46 49.52 50.42
37.72 32.86 38.28 39.44 40.16 39.44 37.53 39.26 33.04 32.49 26.78 27.39 33.82 34.72 39.14 39.82 41.70 41.88 42.27 43.69 44.10 44.85 45.54 46.57 47.70 47.94 48.58 49.95 50.47 49.33 49.66 50.04 49.88 48.99 49.18 49.84 49.55 49.31 49.67 49.06 48.82 48.76 49.03 48.80
38.26 36.46 33.20 36.74 35.33 35.21 35.13 34.40 35.60 34.53 33.72 30.03 30.55 36.84 42.46 42.59 43.00 42.79 42.57 43.95 44.95 45.12 45.84 47.06 47.89 48.60 49.00 48.99 49.03 49.90 49.17 48.93 48.91 49.08 48.80 48.82 49.19 49.46 49.25 48.94 48.94 48.79 48.50 48.44
40.43 36.07 31.09 34.85 38.23 39.89 37.06 36.22 35.97 30.83 31.05 32.37 32.03 34.66 44.99 43.85 44.55 43.89 43.41 44.69 45.56 46.28 46.42 47.05 47.51 48.18 48.40 49.11 49.06 50.18 50.13 49.61 49.88 49.92 49.19 49.53 48.70 48.73 48.21 48.07 48.36 48.58 48.32 48.46
40.50 34.64 29.87 32.46 35.05 36.38 35.74 37.25 37.88 36.30 34.54 31.47 28.97 34.04 44.90 44.18 44.16 44.01 43.52 43.80 46.26 47.57 47.23 47.03 46.61 47.15 48.43 48.56 49.40 49.92 49.98 50.26 49.82 49.44 49.56 48.67 48.57 48.17 48.09 48.29 48.83 49.22 48.98 48.48
44.85 35.88 33.20 30.77 34.15 36.23 33.05 36.40 37.30 36.58 29.56 32.54 34.90 37.53 43.33 44.96 44.48 43.45 43.33 44.40 45.94 47.96 48.38 47.60 46.78 47.14 48.09 48.77 49.26 49.63 49.42 49.72 49.58 49.82 49.64 49.01 48.78 49.39 49.09 49.08 49.48 49.54 48.75 47.99
40.39 33.89 34.90 36.83 38.13 38.25 38.39 37.61 36.81 35.68 37.99 33.31 35.78 38.09 42.25 44.94 43.83 46.51 45.11 45.04 45.57 47.37 48.37 48.63 48.80 48.43 48.49 48.35 48.87 49.57 50.01 49.75 49.78 50.05 49.51 49.91 50.09 49.44 49.61 49.89 49.56 48.87 48.68 48.49
38.77 33.98 35.93 36.15 38.77 38.36 37.20 39.19 38.97 38.12 39.05 38.74 39.67 39.33 42.00 43.55 42.21 42.56 42.97 45.77 45.67 45.94 49.49 49.97 49.68 49.34 48.99 49.75 49.84 50.35 50.28 50.35 50.58 50.39 50.25 50.62 49.79 50.40 50.36 49.49 48.49 48.39 48.67 47.81
36.28 34.95 33.05 32.01 35.46 36.21 33.44 38.76 39.82 38.85 40.31 40.31 35.70 41.34 44.25 43.47 43.68 45.66 45.67 44.11 46.79 46.83 46.99 48.78 49.95 50.39 50.72 50.52 50.88 50.39 50.73 51.01 50.63 50.72 50.76 49.93 50.90 51.41 50.13 48.81 48.17 48.23 47.31 46.67
36.52 34.63 33.84 30.04 32.60 26.80 37.78 40.73 41.90 41.12 42.46 42.91 43.34 42.78 43.65 44.03 45.63 46.38 44.64 45.09 45.07 46.34 47.42 47.58 51.10 51.14 51.49 50.75 49.85 51.18 50.11 50.21 50.86 50.57 50.37 50.40 50.93 50.80 48.84 47.84 47.79 47.32 46.70 46.66
41.17 36.38 30.05 30.51 29.29 36.65 39.64 40.84 39.27 38.78 38.69 43.24 42.20 44.28 45.53 46.15 42.02 43.62 45.20 46.68 47.16 47.06 47.56 49.11 49.23 50.99 51.84 50.18 50.90 50.77 49.99 50.62 50.50 50.57 50.38 50.54 50.97 49.93 47.89 47.18 47.17 46.62 46.79 47.10
39.03 40.20 37.04 28.67 27.21 26.45 36.77 41.95 45.97 43.10 36.70 44.09 44.55 44.24 44.53 42.89 38.29 43.62 46.92 47.19 46.87 47.32 47.84 48.14 48.23 47.68 49.52 51.23 51.02 50.02 50.59 50.52 50.01 51.09 50.84 50.97 50.34 49.39 48.26 47.42 46.78 46.95 47.30 47.35
36.37 33.52 33.16 34.14 32.22 33.71 41.14 43.24 42.84 34.65 36.98 43.60 44.17 44.61 43.83 41.66 44.29 46.28 45.33 46.59 47.36 48.26 48.69 47.90 47.11 47.55 49.28 50.80 49.48 50.22 50.71 50.19 51.93 51.81 50.18 48.89 48.89 48.48 48.33 47.06 46.82 47.00 46.72 46.55
32.39 29.09 31.77 33.66 28.77 29.57 43.59 41.91 40.68 41.72 42.49 44.76 44.53 44.95 44.50 44.32 46.12 46.91 47.33 46.76 47.72 47.99 48.12 48.63 47.41 47.05 47.56 48.02 50.16 50.74 49.84 51.92 50.65 48.80 48.89 48.51 47.97 49.02 48.03 46.65 46.47 46.28 45.74 44.61
36.08 38.44 32.64 35.54 37.12 42.97 42.53 41.10 44.32 44.52 44.03 46.23 45.32 45.67 46.38 46.13 45.98 46.74 47.80 47.23 47.70 47.98 47.51 47.40 47.31 47.12 47.20 47.20 48.91 49.64 50.08 48.19 48.29 48.51 48.10 48.01 48.08 47.69 47.44 46.04 45.30 45.10 44.99 44.21
40.58 43.20 37.87 36.87 41.26 41.32 44.40 47.01 47.35 45.47 45.44 47.27 45.55 47.21 47.47 47.56 47.31 47.03 47.61 47.80 47.71 47.32 46.76 46.76 46.61 46.08 46.22 46.95 47.34 47.63 46.91 47.98 48.74 47.74 47.09 47.47 47.54 46.40 45.85 46.05 45.76 44.94 44.18 43.13
35.01 36.19 40.37 41.89 44.20 43.11 43.54 45.00 46.80 47.19 46.58 46.37 46.76 47.53 47.93 47.36 47.62 47.41 46.88 47.18 47.44 47.18 46.66 46.39 46.02 45.57 46.04 46.64 46.55 47.09 47.64 48.39 47.68 47.77 47.62 47.35 47.24 46.63 44.94 44.95 44.92 44.63 44.07 44.14
39.22 37.15 35.70 35.66 43.29 44.40 42.66 45.51 46.23 45.24 45.69 46.65 46.59 46.80 46.10 47.45 47.71 48.01 47.56 47.76 47.06 47.13 46.47 45.99 45.89 45.56 46.20 46.44 46.44 47.96 48.38 48.22 47.87 47.15 47.09 46.73 45.93 44.33 43.76 43.35 43.17 46.87 46.48 46.68
MSLP
1015.56 1016.05 1016.43 1015.97 1015.86 1015.68 1015.55 1015.68 1015.72 1015.24 1015.17 1015.69 1015.64 1015.43 1014.75 1014.46 1014.85 1014.99 1015.32 1015.22 1015.43 1015.37 1014.89 1015.17 1015.52 1016.06 1016.73 1017.31 1018.02 1018.54 1019.22 1019.75 1020.46 1021.22 1021.78 1022.10 1022.38 1022.41 1022.41 1022.33 1022.17 1022.16 1022.22 1022.31
1016.24 1016.09 1015.73 1015.44 1015.39 1015.36 1015.41 1015.58 1015.56 1015.33 1015.36 1015.66 1015.29 1014.75 1013.81 1013.48 1013.32 1013.49 1014.02 1014.31 1014.29 1014.67 1014.77 1014.89 1015.27 1015.76 1016.24 1016.84 1017.56 1018.23 1018.61 1019.17 1019.73 1020.28 1020.92 1021.37 1021.66 1021.72 1021.59 1021.52 1021.57 1021.57 1021.67 1021.79
1016.23 1015.61 1015.15 1015.23 1015.27 1015.39 1015.61 1015.81 1015.76 1015.93 1015.64 1015.33 1015.43 1014.54 1013.04 1011.89 1011.96 1012.34 1012.76 1012.85 1013.14 1013.43 1013.94 1014.46 1014.92 1015.37 1015.84 1016.41 1016.95 1017.57 1018.09 1018.56 1019.04 1019.65 1020.38 1020.95 1021.19 1021.27 1021.45 1021.37 1021.37 1021.19 1021.15 1021.23
1015.71 1015.21 1015.12 1015.25 1015.43 1015.52 1015.79 1015.83 1015.99 1016.22 1016.66 1016.43 1015.76 1015.28 1012.74 1011.55 1011.41 1011.72 1011.95 1012.31 1012.29 1012.56 1012.87 1013.35 1014.10 1014.85 1015.35 1015.74 1016.31 1016.79 1017.44 1018.06 1018.51 1019.10 1019.70 1020.35 1020.71 1021.04 1021.00 1020.91 1020.80 1020.67 1020.62 1020.69
1015.57 1015.39 1015.34 1015.36 1015.44 1015.40 1015.83 1016.03 1016.34 1016.59 1016.96 1017.07 1015.97 1015.92 1012.18 1011.41 1011.38 1011.15 1011.21 1011.49 1011.47 1011.65 1011.93 1012.61 1013.18 1013.75 1014.36 1015.10 1015.73 1016.27 1016.88 1017.50 1017.95 1018.51 1019.00 1019.68 1020.25 1020.27 1020.31 1020.47 1020.49 1020.41 1020.28 1020.20
1015.65 1015.33 1015.34 1015.28 1015.52 1015.71 1016.04 1016.41 1016.80 1017.11 1017.61 1017.69 1015.48 1015.02 1011.87 1010.91 1009.55 1009.94 1010.38 1010.68 1010.72 1011.17 1011.52 1011.92 1012.43 1013.13 1013.90 1014.51 1015.23 1015.93 1016.54 1017.02 1017.40 1017.92 1018.44 1018.96 1019.56 1019.98 1020.28 1020.32 1020.36 1020.08 1019.98 1019.86
1015.87 1015.50 1015.35 1015.37 1015.96 1016.26 1016.52 1017.32 1017.84 1018.24 1018.25 1016.84 1014.92 1014.40 1010.71 1009.04 1008.36 1008.19 1008.91 1009.64 1010.04 1010.51 1011.04 1011.61 1012.32 1012.94 1013.50 1014.16 1014.69 1015.38 1016.02 1016.60 1016.96 1017.48 1017.99 1018.37 1018.70 1019.23 1019.56 1019.70 1019.75 1019.78 1019.62 1019.47
1016.24 1015.89 1015.61 1015.50 1015.83 1016.22 1016.86 1017.40 1017.81 1017.77 1017.72 1016.33 1014.52 1012.75 1009.09 1007.42 1006.78 1007.06 1007.50 1008.39 1009.48 1010.32 1010.45 1010.97 1011.57 1012.17 1012.86 1013.48 1014.14 1014.76 1015.39 1016.05 1016.50 1016.98 1017.43 1017.81 1018.12 1018.52 1018.72 1018.86 1019.02 1019.13 1019.13 1018.93
1015.77 1015.80 1015.64 1015.77 1015.93 1016.22 1016.80 1017.25 1017.16 1017.49 1017.20 1016.72 1013.93 1011.29 1008.40 1007.04 1006.71 1007.12 1007.69 1008.64 1009.26 1009.83 1010.19 1010.53 1011.15 1011.59 1012.29 1013.04 1013.52 1014.04 1014.73 1015.33 1015.83 1016.23 1016.79 1017.22 1017.51 1017.88 1018.04 1018.16 1018.50 1018.56 1018.49 1018.31
1015.20 1015.68 1016.16 1016.33 1016.34 1016.39 1016.68 1017.20 1017.42 1017.85 1017.84 1016.87 1013.80 1011.56 1008.76 1007.66 1007.30 1007.52 1008.03 1008.38 1008.93 1009.39 1009.99 1010.43 1010.89 1011.32 1011.86 1012.30 1012.89 1013.58 1014.06 1014.55 1015.00 1015.59 1016.06 1016.48 1016.79 1017.10 1017.35 1017.73 1017.90 1017.93 1017.78 1017.78
1015.09 1015.66 1016.97 1016.88 1016.69 1016.43 1017.10 1017.19 1017.38 1017.61 1017.46 1016.56 1014.61 1011.35 1008.03 1007.47 1007.11 1007.04 1007.58 1007.91 1008.32 1008.92 1009.51 1009.92 1010.39 1010.77 1011.32 1011.85 1012.46 1013.00 1013.57 1014.09 1014.62 1014.95 1015.34 1015.77 1016.09 1016.41 1016.80 1017.05 1017.06 1017.07 1017.10 1017.09
1014.80 1015.68 1016.64 1016.62 1015.70 1015.72 1016.01 1016.29 1016.75 1017.49 1017.01 1016.15 1014.72 1010.75 1007.72 1007.10 1006.77 1006.79 1007.11 1007.66 1008.03 1008.45 1008.90 1009.47 1009.92 1010.38 1010.92 1011.38 1011.91 1012.34 1012.81 1013.22 1013.53 1013.93 1014.49 1014.90 1015.27 1015.72 1016.08 1016.22 1016.24 1016.36 1016.41 1016.49
1014.66 1015.64 1016.61 1016.20 1016.21 1015.86 1015.80 1015.68 1015.60 1016.04 1016.26 1015.48 1014.65 1010.23 1007.76 1006.97 1006.48 1006.51 1007.15 1007.64 1007.91 1008.35 1008.66 1009.09 1009.66 1009.98 1010.29 1010.62 1011.08 1011.49 1011.86 1012.14 1012.57 1013.13 1013.65 1014.20 1014.61 1015.05 1015.28 1015.40 1015.55 1015.72 1015.84 1016.00
1014.61 1015.57 1015.84 1015.56 1015.09 1015.07 1015.38 1015.04 1015.08 1015.42 1015.39 1014.42 1012.12 1010.32 1008.24 1007.29 1006.89 1006.67 1007.04 1007.28 1007.49 1007.87 1008.13 1008.46 1008.98 1009.22 1009.38 1009.66 1010.00 1010.49 1010.94 1011.19 1011.65 1012.21 1012.75 1013.26 1013.73 1014.02 1014.31 1014.57 1014.90 1015.09 1015.24 1015.44
1015.33 1015.82 1015.64 1015.10 1014.61 1014.48 1014.30 1013.98 1013.89 1014.01 1013.58 1012.73 1011.03 1009.61 1008.37 1007.07 1007.09 1006.88 1006.87 1006.83 1007.17 1007.42 1007.67 1007.72 1007.97 1008.28 1008.52 1008.88 1009.26 1009.58 1009.91 1010.36 1010.75 1011.37 1011.89 1012.16 1012.60 1013.13 1013.57 1013.96 1014.22 1014.48 1014.76 1014.99
1015.28 1015.45 1015.47 1014.88 1014.38 1014.02 1013.34 1012.49 1012.05 1011.84 1011.57 1010.88 1010.43 1007.57 1007.86 1007.16 1006.98 1006.90 1006.81 1006.86 1007.03 1006.61 1006.58 1006.66 1006.91 1007.32 1007.70 1007.68 1008.08 1008.62 1008.92 1009.22 1009.79 1010.40 1010.79 1011.27 1011.95 1012.44 1012.81 1013.22 1013.63 1014.03 1014.35 1014.63
1015.74 1015.71 1015.75 1014.76 1014.50 1013.89 1012.02 1009.10 1009.66 1009.76 1009.29 1009.02 1008.34 1005.95 1006.54 1006.50 1006.50 1005.99 1005.90 1006.24 1006.08 1005.84 1005.87 1006.00 1005.98 1005.94 1006.21 1006.46 1006.68 1007.28 1007.69 1008.35 1008.89 1009.30 1009.82 1010.37 1011.01 1011.67 1012.16 1012.62 1013.22 1013.64 1014.02 1014.18
1014.91 1015.53 1015.57 1015.35 1014.45 1012.63 1007.74 1007.05 1006.84 1006.83 1006.53 1006.34 1006.03 1005.84 1005.22 1005.39 1005.41 1005.06 1005.14 1005.38 1005.25 1005.06 1004.81 1004.76 1004.74 1004.90 1005.02 1005.22 1005.85 1006.16 1006.92 1007.54 1007.96 1008.31 1008.79 1009.43 1010.13 1010.84 1011.54 1012.27 1012.70 1013.05 1013.42 1013.76
1013.55 1014.53 1015.35 1014.97 1013.72 1010.10 1007.42 1006.72 1006.30 1006.15 1005.36 1005.14 1005.38 1005.05 1004.23 1004.44 1004.98 1004.01 1004.48 1004.26 1004.00 1003.82 1003.78 1003.57 1003.47 1003.64 1003.96 1004.47 1004.49 1005.21 1006.10 1006.57 1007.19 1007.41 1007.78 1008.31 1009.08 1010.02 1010.80 1011.51 1012.02 1012.50 1013.01 1013.24
1012.86 1013.19 1014.14 1014.47 1013.18 1010.20 1006.53 1004.66 1004.35 1005.02 1003.88 1004.10 1003.74 1003.53 1003.48 1003.88 1004.43 1003.66 1002.95 1002.98 1003.04 1003.00 1002.87 1003.01 1002.90 1002.93 1003.36 1003.35 1003.63 1004.43 1004.92 1005.52 1005.91 1005.95 1006.63 1007.38 1008.10 1009.04 1009.94 1010.61 1011.36 1011.86 1012.28 1012.63
1011.64 1012.26 1012.17 1012.55 1011.30 1007.90 1006.00 1004.76 1004.74 1004.82 1004.25 1002.93 1002.87 1002.77 1002.69 1003.30 1003.08 1002.20 1002.30 1002.38 1002.40 1002.43 1002.27 1002.29 1002.44 1002.48 1002.05 1002.32 1003.06 1003.60 1003.95 1004.14 1004.04 1005.28 1006.08 1006.82 1007.52 1008.30 1009.14 1010.20 1010.91 1011.41 1011.97 1012.40
1010.75 1011.13 1010.75 1011.16 1010.28 1007.51 1005.07 1004.89 1004.44 1004.15 1002.97 1002.96 1002.70 1002.38 1002.42 1002.62 1002.52 1002.31 1002.07 1002.16 1002.37 1002.41 1002.27 1002.16 1002.23 1002.15 1002.13 1002.22 1002.48 1002.78 1002.94 1002.74 1003.75 1004.59 1005.49 1006.32 1007.06 1007.95 1008.97 1009.91 1010.62 1011.17 1011.73 1012.21
1009.98 1008.66 1009.02 1008.26 1005.72 1005.57 1004.17 1004.46 1003.95 1003.78 1003.87 1003.20 1002.68 1002.11 1002.22 1002.27 1002.30 1002.27 1002.22 1002.27 1002.18 1002.21 1002.12 1002.04 1002.13 1002.03 1001.97 1002.02 1002.20 1002.31 1001.99 1002.84 1003.59 1004.51 1005.28 1006.03 1006.80 1007.66 1008.50 1009.48 1010.27 1011.02 1011.46 1011.80
1009.38 1008.83 1008.28 1007.81 1005.60 1004.86 1004.34 1004.07 1003.89 1003.44 1003.32 1002.66 1002.12 1002.10 1002.04 1002.25 1002.26 1002.23 1002.34 1002.32 1002.24 1002.02 1002.03 1001.93 1002.07 1002.11 1002.02 1002.03 1002.01 1001.95 1002.18 1002.59 1003.33 1004.23 1005.05 1005.78 1006.65 1007.52 1008.34 1009.16 1009.84 1010.44 1010.97 1011.37
1013.40 1012.62 1009.27 1006.47 1005.40 1004.96 1004.22 1003.70 1003.24 1002.94 1002.55 1002.34 1001.78 1001.77 1001.63 1001.77 1001.97 1001.88 1002.05 1002.13 1002.27 1002.11 1001.79 1001.87 1002.02 1002.06 1001.94 1002.03 1002.13 1002.14 1002.30 1002.71 1003.42 1004.08 1004.87 1005.67 1006.48 1007.30 1008.25 1008.90 1009.25 1009.71 1010.05 1010.38
1012.13 1011.40 1010.76 1008.54 1007.62 1005.50 1004.58 1003.83 1003.49 1003.44 1002.80 1001.83 1001.62 1001.38 1001.06 1001.32 1001.40 1001.25 1001.35 1001.38 1001.56 1001.61 1001.49 1001.65 1001.62 1001.71 1001.63 1001.91 1002.06 1002.18 1002.44 1002.80 1003.42 1004.26 1004.97 1005.72 1006.51 1007.27 1007.95 1008.63 1009.26 1009.46 1009.59 1009.83
Wind_Speed
4 3 3 8 7 4 2 2 4 1 2 4 9 10 13 11 9 10 10 10 10 13 13 13 11 11 10 9 10 12 10 9 8 3 4 3 4 3 4 5 8 8 7 7
4 6 8 3 1 2 3 4 6 2 4 3 6 13 12 11 11 16 14 11 11 8 9 10 11 10 11 10 10 10 12 10 8 6 4 4 4 4 4 5 6 7 7 7
7 5 5 1 1 2 3 3 3 3 6 5 3 11 6 7 7 10 11 11 10 12 14 12 11 13 10 11 11 11 11 11 8 8 4 2 1 2 0 3 3 6 8 8
6 4 4 3 2 3 3 1 2 3 5 3 4 8 8 5 8 8 11 11 11 11 10 15 16 10 12 13 9 10 10 10 9 10 6 7 5 6 4 4 4 5 7 8
8 4 2 2 4 2 6 0 2 2 2 4 5 2 12 3 5 10 11 11 11 11 14 15 17 17 14 11 11 10 10 9 9 9 9 7 7 4 3 3 6 7 6 7
8 2 3 7 2 2 2 2 3 2 2 2 7 7 9 6 10 5 6 10 12 10 10 12 14 13 13 10 9 9 11 9 9 10 10 11 10 7 5 5 5 5 4 5
3 5 2 3 3 2 2 6 4 3 2 8 4 4 13 6 9 11 18 13 13 10 10 10 13 11 10 12 11 11 12 11 10 10 9 10 10 9 9 7 5 5 4 3
6 5 8 4 6 6 6 8 6 5 3 5 5 8 10 8 11 9 12 13 10 10 9 11 11 14 13 13 12 11 13 10 10 10 10 8 9 6 6 7 5 5 5 5
3 4 2 4 3 3 3 4 6 1 3 2 5 9 12 3 3 5 10 10 12 10 10 10 9 11 11 11 14 14 11 10 10 11 8 8 8 8 8 8 6 5 5 5
4 1 1 2 1 1 3 2 2 2 4 5 7 6 9 4 6 5 9 13 10 9 9 9 9 10 8 10 11 9 10 13 10 9 9 8 9 8 8 6 8 8 7 6
4 5 1 3 6 9 2 3 4 3 6 6 3 8 6 9 9 12 11 11 12 11 10 10 9 9 9 8 9 11 9 10 9 9 8 8 8 8 7 7 7 8 7 7
7 5 5 12 5 8 7 9 7 6 5 4 5 11 5 5 10 9 10 9 8 8 10 9 9 9 10 11 10 13 11 12 12 10 9 11 8 8 8 8 8 7 8 6
5 2 1 9 6 3 6 6 8 2 3 6 7 9 5 6 5 8 9 8 8 9 9 9 8 10 11 11 11 12 12 13 11 10 10 8 9 8 9 8 8 7 7 7
5 4 8 9 6 4 4 7 8 9 5 8 12 10 11 8 6 4 7 8 10 10 10 9 8 11 11 11 12 12 11 11 11 11 11 10 10 11 9 8 7 7 6 5
6 6 5 8 8 5 8 8 11 16 19 12 7 25 21 21 6 7 5 7 9 10 11 13 14 12 13 11 11 10 11 11 11 12 11 13 11 9 8 8 8 7 5 5
4 5 6 13 11 12 18 17 15 18 20 22 26 33 6 10 7 8 11 7 9 11 14 15 14 13 14 16 14 13 13 14 12 13 14 12 10 10 9 8 8 7 5 5
2 4 3 12 4 8 15 22 21 12 16 16 22 24 17 17 15 20 16 9 11 11 11 12 15 17 17 16 15 16 15 12 14 15 14 12 12 12 10 8 7 7 7 5
7 5 4 4 3 12 10 5 11 20 21 26 24 14 14 17 18 18 10 9 11 13 11 12 14 14 15 13 12 13 10 13 15 15 15 13 12 12 9 8 8 6 5 6
12 7 2 7 8 19 28 12 4 7 11 15 16 21 26 20 6 14 5 10 14 10 10 13 12 13 15 12 16 13 13 15 15 17 16 15 14 12 10 9 8 6 5 5
10 9 11 3 8 13 3 10 19 9 23 11 17 20 20 7 9 12 15 11 11 11 8 8 10 8 9 14 12 15 16 16 18 19 17 14 13 13 12 9 8 5 4 5
12 8 20 15 15 12 8 8 2 8 8 3 5 11 10 8 11 11 3 8 8 7 6 2 7 9 14 11 11 15 15 18 20 13 11 10 11 12 10 8 5 6 6 4
9 8 12 11 10 28 5 2 20 6 5 2 2 2 3 3 5 9 8 7 6 8 7 6 5 7 7 7 11 15 16 18 10 10 11 11 11 9 7 9 6 5 6 5
24 15 5 11 13 9 6 4 6 3 6 16 10 3 3 4 4 4 5 6 6 7 7 4 5 8 7 6 9 12 11 8 9 10 10 10 10 8 8 8 7 4 5 5
7 9 11 5 13 11 15 20 22 9 14 15 8 7 6 7 7 5 5 7 7 7 6 4 5 7 8 5 6 6 7 8 11 10 10 9 11 8 7 5 5 5 5 5
10 19 20 22 20 14 11 11 14 15 9 10 9 8 8 7 9 8 6 7 7 8 6 4 6 7 8 5 5 5 7 8 9 10 9 9 7 8 6 5 6 6 5 5
9 7 10 13 24 15 7 9 9 10 13 11 10 11 6 9 10 9 8 8 6 8 6 6 8 7 7 7 7 6 7 8 10 9 7 7 7 5 5 5 3 2 7 9
Wind_Direction
235 72 245 266 196 220 299 329 306 242 201 179 230 258 258 231 221 215 221 220 212 208 207 194 184 179 175 168 166 174 166 177 159 160 175 200 209 214 228 221 223 223 223 222
344 252 237 168 85 44 2 321 302 335 204 215 271 263 247 235 214 203 205 220 220 204 202 197 182 173 177 177 175 173 181 174 180 171 177 165 170 218 200 212 224 224 223 222
179 241 172 183 316 360 330 252 264 238 322 275 323 293 267 250 196 203 213 207 209 195 194 192 183 182 174 179 180 176 181 181 181 174 145 139 47 326 253 241 240 232 226 225
231 210 162 179 240 166 289 293 343 328 41 256 103 286 301 232 210 198 199 200 211 203 184 182 182 181 183 191 180 174 175 179 185 173 168 174 185 207 219 213 220 237 228 228
251 168 176 226 224 162 219 270 272 286 308 358 302 124 268 157 216 212 213 210 212 205 180 180 182 185 191 176 184 185 179 181 184 180 184 183 204 213 217 235 256 253 249 235
225 186 185 195 105 77 161 335 1 21 89 321 238 161 275 199 208 205 215 215 213 204 191 182 182 178 186 181 175 178 183 194 187 185 190 192 204 210 224 238 248 249 245 247
316 220 166 131 124 17 85 59 337 348 349 229 311 152 248 257 238 195 198 205 209 196 183 175 179 180 180 180 181 181 184 197 192 190 193 198 206 201 219 225 232 250 258 248
187 303 158 197 176 184 179 156 166 231 225 278 337 240 255 236 235 208 184 188 182 189 190 186 179 181 185 184 181 179 184 190 188 191 199 199 204 207 220 221 225 243 240 240
208 251 63 63 22 121 212 188 196 162 301 25 243 284 301 227 52 163 168 159 183 186 185 187 176 178 176 178 186 185 179 190 189 196 188 200 202 207 223 228 227 240 246 250
246 75 41 342 12 245 152 213 82 356 232 253 281 268 241 257 220 188 174 183 191 183 181 183 180 180 181 181 181 177 184 192 194 190 194 203 208 210 217 215 232 234 245 242
196 133 269 63 208 189 115 266 215 162 166 189 289 266 221 233 223 194 201 197 185 183 186 189 189 188 183 176 177 188 189 187 194 193 194 198 206 208 207 215 226 229 238 235
209 155 188 214 245 195 174 188 164 133 255 233 156 272 272 300 223 205 202 199 197 182 186 187 185 181 184 188 186 194 194 193 199 195 189 203 198 198 208 217 223 223 231 233
179 222 356 323 347 344 206 211 207 154 88 224 154 260 291 339 342 207 200 209 202 199 190 190 182 190 193 193 193 194 194 197 192 184 190 194 201 197 211 215 219 222 226 233
93 194 179 193 204 142 199 219 208 191 197 225 230 279 283 297 344 111 219 220 206 201 195 193 191 199 198 195 193 193 199 193 187 186 190 195 199 202 203 204 212 211 210 225
153 229 224 246 254 227 223 217 209 210 224 217 243 237 245 269 247 304 278 235 205 210 199 199 200 203 200 196 199 198 200 193 186 188 191 203 200 194 192 198 202 203 208 229
198 232 215 260 271 281 274 250 229 216 222 239 252 258 244 263 289 284 273 260 242 214 213 207 203 198 204 202 200 203 202 199 183 191 200 198 188 191 195 191 195 191 208 227
235 187 168 255 268 295 277 242 239 215 215 208 229 247 243 253 249 259 261 224 243 229 213 209 212 204 205 205 197 204 202 190 190 196 198 196 192 194 193 185 181 194 203 205
187 171 175 223 129 237 244 247 212 217 226 221 241 251 240 233 246 250 227 226 234 236 227 221 217 213 212 202 198 202 187 193 195 200 197 196 190 194 182 176 188 190 189 199
193 175 230 203 215 278 284 279 206 181 257 228 229 243 251 247 277 260 217 232 239 243 231 228 215 210 209 197 204 191 189 196 197 205 201 197 188 188 175 183 185 186 182 190
182 197 204 150 211 230 325 232 234 215 267 229 215 234 241 217 227 271 241 246 251 245 233 236 232 212 207 214 194 190 198 197 203 206 202 193 183 182 181 178 177 174 174 191
203 197 218 222 238 270 233 294 33 134 240 308 182 248 248 202 217 243 249 237 217 223 236 252 249 223 212 205 178 201 203 205 211 199 187 175 177 175 170 161 160 165 176 172
184 168 214 214 227 252 153 333 227 216 281 267 273 28 61 260 270 255 249 234 239 254 272 266 265 259 258 211 189 209 208 212 187 162 169 172 163 161 154 158 163 164 163 174
234 218 202 201 235 263 266 203 276 313 267 283 284 284 283 269 252 296 288 261 253 268 282 266 256 280 280 238 208 212 221 156 157 161 168 165 153 153 154 155 163 155 171 174
249 254 243 262 245 241 246 254 264 271 256 259 236 228 245 244 269 281 286 287 300 299 279 258 270 270 275 254 229 230 162 155 156 161 157 153 155 153 152 149 156 162 176 186
276 325 288 262 259 278 271 251 251 269 263 265 272 215 220 226 241 230 238 244 253 262 269 238 250 262 266 238 222 197 169 152 155 155 156 155 152 152 153 170 173 180 200 177
237 244 286 290 306 284 301 313 308 290 270 247 242 276 249 214 235 230 237 244 250 249 255 242 240 238 241 215 215 194 172 159 153 151 150 154 151 155 159 157 156 210 179 173